Location: Burland Observatory
(39.4088°N, 105.4217°W)
Time: 00:57:58
(UTC-07:00)

Vanguard 3 - Pass Details

Date: 15 December 2019
Orbit: 507 x 3263 km, 33.4° (Epoch: 24 January)

Event Time Altitude Azimuth Distance (km) Brightness Sun altitude
Rises 10:06:02 0° 271° (W) 4,147 10.5 22.2°
Reaches altitude 10° 10:08:24 10° 266° (W) 3,459 10.2 22.4°
Maximum altitude 10:17:27 56° 192° (SSW) 2,312 10.3 23.2°
Drops below altitude 10° 10:33:04 10° 120° (ESE) 5,718 12.4 24.3°
Sets 10:38:17 0° 117° (ESE) 6,992 12.6 24.7°
